Date_Time,Julian_Date,Latitude,Longitude,Instrument_Depth,U,V,Speed,Direction
(yyyy-mm-dd hh:mn:ss UTC),(JD),(+ deg. North),(+ deg. East),(m),(cm/s),(cm/s),(cm/s),(deg True)
1982-12-07 16:30:00 UTC,2445311.187500,29.6650,-93.4789,0086,-3.51,-11.48,12.0000,197.0000
1982-12-07 17:00:00 UTC,2445311.208333,29.6650,-93.4789,0086,-2.29,-11.78,12.0000,191.0000
1982-12-07 17:30:00 UTC,2445311.229167,29.6650,-93.4789,0086,-1.46,-11.91,12.0000,187.0000
1982-12-07 18:00:00 UTC,2445311.250000,29.6650,-93.4789,0086,-1.25,-11.93,12.0000,186.0000
1982-12-07 18:30:00 UTC,2445311.270833,29.6650,-93.4789,0086,-1.67,-11.88,12.0000,188.0000
1982-12-07 19:00:00 UTC,2445311.291667,29.6650,-93.4789,0086,-2.90,-11.64,12.0000,194.0000
1982-12-07 19:30:00 UTC,2445311.312500,29.6650,-93.4789,0086,-4.10,-11.28,12.0000,200.0000
1982-12-07 20:00:00 UTC,2445311.333333,29.6650,-93.4789,0086,-4.82,-9.89,11.0000,206.0000
1982-12-07 20:30:00 UTC,2445311.354167,29.6650,-93.4789,0086,-5.03,-7.46,9.0000,214.0000
1982-12-07 21:00:00 UTC,2445311.375000,29.6650,-93.4789,0086,-5.66,-6.99,9.0000,219.0000
1982-12-07 21:30:00 UTC,2445311.395833,29.6650,-93.4789,0086,-6.14,-6.58,9.0000,223.0000
1982-12-07 22:00:00 UTC,2445311.416667,29.6650,-93.4789,0086,-6.36,-6.36,9.0000,225.0000
1982-12-07 22:30:00 UTC,2445311.437500,29.6650,-93.4789,0086,-7.55,-6.56,10.0000,229.0000
1982-12-07 23:00:00 UTC,2445311.458333,29.6650,-93.4789,0086,-9.33,-5.83,11.0000,238.0000
1982-12-07 23:30:00 UTC,2445311.479167,29.6650,-93.4789,0086,-9.97,-4.65,11.0000,245.0000
1982-12-08 00:00:00 UTC,2445311.500000,29.6650,-93.4789,0086,-11.20,-4.30,12.0000,249.0000
1982-12-08 00:30:00 UTC,2445311.520833,29.6650,-93.4789,0086,-11.41,-3.71,12.0000,252.0000
1982-12-08 01:00:00 UTC,2445311.541667,29.6650,-93.4789,0086,-10.52,-3.22,11.0000,253.0000
1982-12-08 01:30:00 UTC,2445311.562500,29.6650,-93.4789,0086,-10.40,-3.58,11.0000,251.0000
1982-12-08 02:00:00 UTC,2445311.583333,29.6650,-93.4789,0086,-9.27,-3.75,10.0000,248.0000
1982-12-08 02:30:00 UTC,2445311.604167,29.6650,-93.4789,0086,-7.47,-2.87,8.0000,249.0000
1982-12-08 03:00:00 UTC,2445311.625000,29.6650,-93.4789,0086,-6.93,-0.97,7.0000,262.0000
1982-12-08 03:30:00 UTC,2445311.645833,29.6650,-93.4789,0086,-7.99,-0.42,8.0000,267.0000
1982-12-08 04:00:00 UTC,2445311.666667,29.6650,-93.4789,0086,-9.93,-1.22,10.0000,263.0000
1982-12-08 04:30:00 UTC,2445311.687500,29.6650,-93.4789,0086,-9.82,-1.91,10.0000,259.0000
1982-12-08 05:00:00 UTC,2445311.708333,29.6650,-93.4789,0086,-9.82,-1.91,10.0000,259.0000
1982-12-08 05:30:00 UTC,2445311.729167,29.6650,-93.4789,0086,-9.88,-1.56,10.0000,261.0000
1982-12-08 06:00:00 UTC,2445311.750000,29.6650,-93.4789,0086,-7.85,-1.53,8.0000,259.0000
1982-12-08 06:30:00 UTC,2445311.770833,29.6650,-93.4789,0086,-6.79,-1.69,7.0000,256.0000
1982-12-08 07:00:00 UTC,2445311.791667,29.6650,-93.4789,0086,-5.85,-1.35,6.0000,257.0000
1982-12-08 07:30:00 UTC,2445311.812500,29.6650,-93.4789,0086,-4.91,-0.95,5.0000,259.0000
1982-12-08 08:00:00 UTC,2445311.833333,29.6650,-93.4789,0086,-4.00,-0.00,4.0000,270.0000
1982-12-08 08:30:00 UTC,2445311.854167,29.6650,-93.4789,0086,-4.87,1.12,5.0000,283.0000
1982-12-08 09:00:00 UTC,2445311.875000,29.6650,-93.4789,0086,-4.95,0.70,5.0000,278.0000
1982-12-08 09:30:00 UTC,2445311.895833,29.6650,-93.4789,0086,-5.00,-0.09,5.0000,269.0000
1982-12-08 10:00:00 UTC,2445311.916667,29.6650,-93.4789,0086,-5.99,0.42,6.0000,274.0000
1982-12-08 10:30:00 UTC,2445311.937500,29.6650,-93.4789,0086,-6.91,1.10,7.0000,279.0000
1982-12-08 11:00:00 UTC,2445311.958333,29.6650,-93.4789,0086,-7.92,1.11,8.0000,278.0000
1982-12-08 11:30:00 UTC,2445311.979167,29.6650,-93.4789,0086,-7.94,0.97,8.0000,277.0000
1982-12-08 12:00:00 UTC,2445312.000000,29.6650,-93.4789,0086,-8.91,1.25,9.0000,278.0000
1982-12-08 12:30:00 UTC,2445312.020833,29.6650,-93.4789,0086,-8.91,1.25,9.0000,278.0000
1982-12-08 13:00:00 UTC,2445312.041667,29.6650,-93.4789,0086,-9.82,1.91,10.0000,281.0000
1982-12-08 13:30:00 UTC,2445312.062500,29.6650,-93.4789,0086,-9.74,2.25,10.0000,283.0000
1982-12-08 14:00:00 UTC,2445312.083333,29.6650,-93.4789,0086,-9.82,1.91,10.0000,281.0000
1982-12-08 14:30:00 UTC,2445312.104167,29.6650,-93.4789,0086,-9.95,1.05,10.0000,276.0000
1982-12-08 15:00:00 UTC,2445312.125000,29.6650,-93.4789,0086,-8.91,1.25,9.0000,278.0000
1982-12-08 15:30:00 UTC,2445312.145833,29.6650,-93.4789,0086,-7.69,2.21,8.0000,286.0000
1982-12-08 16:00:00 UTC,2445312.166667,29.6650,-93.4789,0086,-7.65,2.34,8.0000,287.0000
1982-12-08 16:30:00 UTC,2445312.187500,29.6650,-93.4789,0086,-7.73,2.07,8.0000,285.0000
1982-12-08 17:00:00 UTC,2445312.208333,29.6650,-93.4789,0086,-7.76,1.94,8.0000,284.0000
1982-12-08 17:30:00 UTC,2445312.229167,29.6650,-93.4789,0086,-7.92,1.11,8.0000,278.0000
1982-12-08 18:00:00 UTC,2445312.250000,29.6650,-93.4789,0086,-6.96,0.73,7.0000,276.0000
1982-12-08 18:30:00 UTC,2445312.270833,29.6650,-93.4789,0086,-5.80,1.55,6.0000,285.0000
1982-12-08 19:00:00 UTC,2445312.291667,29.6650,-93.4789,0086,-4.83,1.29,5.0000,285.0000
1982-12-08 19:30:00 UTC,2445312.312500,29.6650,-93.4789,0086,-5.93,-0.94,6.0000,261.0000
1982-12-08 20:00:00 UTC,2445312.333333,29.6650,-93.4789,0086,-6.49,-2.62,7.0000,248.0000
1982-12-08 20:30:00 UTC,2445312.354167,29.6650,-93.4789,0086,-5.44,-2.54,6.0000,245.0000
1982-12-08 21:00:00 UTC,2445312.375000,29.6650,-93.4789,0086,-5.60,-2.15,6.0000,249.0000
1982-12-08 21:30:00 UTC,2445312.395833,29.6650,-93.4789,0086,-4.70,-1.71,5.0000,250.0000
1982-12-08 22:00:00 UTC,2445312.416667,29.6650,-93.4789,0086,-5.48,-2.44,6.0000,246.0000
1982-12-08 22:30:00 UTC,2445312.437500,29.6650,-93.4789,0086,-5.60,-2.15,6.0000,249.0000
1982-12-08 23:00:00 UTC,2445312.458333,29.6650,-93.4789,0086,-6.54,-2.51,7.0000,249.0000
1982-12-08 23:30:00 UTC,2445312.479167,29.6650,-93.4789,0086,-5.48,-2.44,6.0000,246.0000
1982-12-09 00:00:00 UTC,2445312.500000,29.6650,-93.4789,0086,-5.48,-2.44,6.0000,246.0000
1982-12-09 00:30:00 UTC,2445312.520833,29.6650,-93.4789,0086,-5.48,-2.44,6.0000,246.0000
1982-12-09 01:00:00 UTC,2445312.541667,29.6650,-93.4789,0086,-5.67,-1.95,6.0000,251.0000
1982-12-09 01:30:00 UTC,2445312.562500,29.6650,-93.4789,0086,-5.82,-1.45,6.0000,256.0000
1982-12-09 02:00:00 UTC,2445312.583333,29.6650,-93.4789,0086,-4.67,-1.79,5.0000,249.0000
1982-12-09 02:30:00 UTC,2445312.604167,29.6650,-93.4789,0086,-4.41,-2.35,5.0000,242.0000
1982-12-09 03:00:00 UTC,2445312.625000,29.6650,-93.4789,0086,-4.76,-1.55,5.0000,252.0000
1982-12-09 03:30:00 UTC,2445312.645833,29.6650,-93.4789,0086,-4.99,-0.35,5.0000,266.0000
1982-12-09 04:00:00 UTC,2445312.666667,29.6650,-93.4789,0086,-4.99,0.26,5.0000,273.0000
1982-12-09 04:30:00 UTC,2445312.687500,29.6650,-93.4789,0086,-5.99,-0.31,6.0000,267.0000
1982-12-09 05:00:00 UTC,2445312.708333,29.6650,-93.4789,0086,-5.00,-0.00,5.0000,270.0000
1982-12-09 05:30:00 UTC,2445312.729167,29.6650,-93.4789,0086,-3.71,1.50,4.0000,292.0000
1982-12-09 06:00:00 UTC,2445312.750000,29.6650,-93.4789,0086,-3.19,2.41,4.0000,307.0000
1982-12-09 06:30:00 UTC,2445312.770833,29.6650,-93.4789,0086,-2.70,1.32,3.0000,296.0000
1982-12-09 07:00:00 UTC,2445312.791667,29.6650,-93.4789,0086,-1.93,-0.52,2.0000,255.0000
1982-12-09 07:30:00 UTC,2445312.812500,29.6650,-93.4789,0086,-2.57,-1.55,3.0000,239.0000
1982-12-09 08:00:00 UTC,2445312.833333,29.6650,-93.4789,0086,-2.85,-0.93,3.0000,252.0000
1982-12-09 08:30:00 UTC,2445312.854167,29.6650,-93.4789,0086,-0.99,-0.10,1.0000,264.0000
1982-12-09 09:00:00 UTC,2445312.875000,29.6650,-93.4789,0086,-0.96,-0.28,1.0000,254.0000
1982-12-09 09:30:00 UTC,2445312.895833,29.6650,-93.4789,0086,-3.00,0.05,3.0000,271.0000
1982-12-09 10:00:00 UTC,2445312.916667,29.6650,-93.4789,0086,-5.80,1.55,6.0000,285.0000
1982-12-09 10:30:00 UTC,2445312.937500,29.6650,-93.4789,0086,-7.25,3.38,8.0000,295.0000
1982-12-09 11:00:00 UTC,2445312.958333,29.6650,-93.4789,0086,-8.75,4.85,10.0000,299.0000
1982-12-09 11:30:00 UTC,2445312.979167,29.6650,-93.4789,0086,-8.83,4.69,10.0000,298.0000
1982-12-09 12:00:00 UTC,2445313.000000,29.6650,-93.4789,0086,-8.02,4.09,9.0000,297.0000
1982-12-09 12:30:00 UTC,2445313.020833,29.6650,-93.4789,0086,-6.12,3.39,7.0000,299.0000
1982-12-09 13:00:00 UTC,2445313.041667,29.6650,-93.4789,0086,-5.44,2.54,6.0000,295.0000
1982-12-09 13:30:00 UTC,2445313.062500,29.6650,-93.4789,0086,-6.76,1.81,7.0000,285.0000
1982-12-09 14:00:00 UTC,2445313.083333,29.6650,-93.4789,0086,-8.56,2.78,9.0000,288.0000
1982-12-09 14:30:00 UTC,2445313.104167,29.6650,-93.4789,0086,-8.28,3.52,9.0000,293.0000
1982-12-09 15:00:00 UTC,2445313.125000,29.6650,-93.4789,0086,-8.46,3.08,9.0000,290.0000
1982-12-09 15:30:00 UTC,2445313.145833,29.6650,-93.4789,0086,-6.66,2.16,7.0000,288.0000
1982-12-09 16:00:00 UTC,2445313.166667,29.6650,-93.4789,0086,-5.60,2.15,6.0000,291.0000
1982-12-09 16:30:00 UTC,2445313.187500,29.6650,-93.4789,0086,-5.74,1.75,6.0000,287.0000
1982-12-09 17:00:00 UTC,2445313.208333,29.6650,-93.4789,0086,-4.99,0.35,5.0000,274.0000
1982-12-09 17:30:00 UTC,2445313.229167,29.6650,-93.4789,0086,-5.94,-0.84,6.0000,262.0000
1982-12-09 18:00:00 UTC,2445313.250000,29.6650,-93.4789,0086,-7.79,-1.80,8.0000,257.0000
1982-12-09 18:30:00 UTC,2445313.270833,29.6650,-93.4789,0086,-7.90,-1.25,8.0000,261.0000
1982-12-09 19:00:00 UTC,2445313.291667,29.6650,-93.4789,0086,-8.00,-0.14,8.0000,269.0000
1982-12-09 19:30:00 UTC,2445313.312500,29.6650,-93.4789,0086,-7.99,0.42,8.0000,273.0000
1982-12-09 20:00:00 UTC,2445313.333333,29.6650,-93.4789,0086,-7.99,0.42,8.0000,273.0000
1982-12-09 20:30:00 UTC,2445313.354167,29.6650,-93.4789,0086,-7.97,0.70,8.0000,275.0000
1982-12-09 21:00:00 UTC,2445313.375000,29.6650,-93.4789,0086,-7.85,1.53,8.0000,281.0000
1982-12-09 21:30:00 UTC,2445313.395833,29.6650,-93.4789,0086,-7.73,2.07,8.0000,285.0000
1982-12-09 22:00:00 UTC,2445313.416667,29.6650,-93.4789,0086,-8.89,1.41,9.0000,279.0000
1982-12-09 22:30:00 UTC,2445313.437500,29.6650,-93.4789,0086,-8.95,0.94,9.0000,276.0000
1982-12-09 23:00:00 UTC,2445313.458333,29.6650,-93.4789,0086,-8.91,1.25,9.0000,278.0000
1982-12-09 23:30:00 UTC,2445313.479167,29.6650,-93.4789,0086,-7.88,1.39,8.0000,280.0000
1982-12-10 00:00:00 UTC,2445313.500000,29.6650,-93.4789,0086,-7.90,1.25,8.0000,279.0000
1982-12-10 00:30:00 UTC,2445313.520833,29.6650,-93.4789,0086,-7.96,0.84,8.0000,276.0000
1982-12-10 01:00:00 UTC,2445313.541667,29.6650,-93.4789,0086,-8.97,0.78,9.0000,275.0000
1982-12-10 01:30:00 UTC,2445313.562500,29.6650,-93.4789,0086,-8.91,1.25,9.0000,278.0000
1982-12-10 02:00:00 UTC,2445313.583333,29.6650,-93.4789,0086,-9.90,1.39,10.0000,278.0000
1982-12-10 02:30:00 UTC,2445313.604167,29.6650,-93.4789,0086,-10.00,0.17,10.0000,271.0000
1982-12-10 03:00:00 UTC,2445313.625000,29.6650,-93.4789,0086,-9.96,-0.87,10.0000,265.0000
1982-12-10 03:30:00 UTC,2445313.645833,29.6650,-93.4789,0086,-8.95,-0.94,9.0000,264.0000
1982-12-10 04:00:00 UTC,2445313.666667,29.6650,-93.4789,0086,-8.99,-0.47,9.0000,267.0000
1982-12-10 04:30:00 UTC,2445313.687500,29.6650,-93.4789,0086,-8.99,0.31,9.0000,272.0000
1982-12-10 05:00:00 UTC,2445313.708333,29.6650,-93.4789,0086,-8.99,0.31,9.0000,272.0000
1982-12-10 05:30:00 UTC,2445313.729167,29.6650,-93.4789,0086,-9.00,-0.00,9.0000,270.0000
1982-12-10 06:00:00 UTC,2445313.750000,29.6650,-93.4789,0086,-6.99,0.37,7.0000,273.0000
1982-12-10 06:30:00 UTC,2445313.770833,29.6650,-93.4789,0086,-5.99,-0.31,6.0000,267.0000
1982-12-10 07:00:00 UTC,2445313.791667,29.6650,-93.4789,0086,-4.83,-1.29,5.0000,255.0000
1982-12-10 07:30:00 UTC,2445313.812500,29.6650,-93.4789,0086,-3.91,-0.83,4.0000,258.0000
1982-12-10 08:00:00 UTC,2445313.833333,29.6650,-93.4789,0086,-3.97,-0.49,4.0000,263.0000
1982-12-10 08:30:00 UTC,2445313.854167,29.6650,-93.4789,0086,-5.98,-0.52,6.0000,265.0000
1982-12-10 09:00:00 UTC,2445313.875000,29.6650,-93.4789,0086,-4.99,0.26,5.0000,273.0000
1982-12-10 09:30:00 UTC,2445313.895833,29.6650,-93.4789,0086,-4.91,0.95,5.0000,281.0000
1982-12-10 10:00:00 UTC,2445313.916667,29.6650,-93.4789,0086,-5.80,1.55,6.0000,285.0000
1982-12-10 10:30:00 UTC,2445313.937500,29.6650,-93.4789,0086,-5.80,1.55,6.0000,285.0000
1982-12-10 11:00:00 UTC,2445313.958333,29.6650,-93.4789,0086,-5.94,0.84,6.0000,278.0000
1982-12-10 11:30:00 UTC,2445313.979167,29.6650,-93.4789,0086,-7.00,0.12,7.0000,271.0000
1982-12-10 12:00:00 UTC,2445314.000000,29.6650,-93.4789,0086,-8.00,-0.00,8.0000,270.0000
1982-12-10 12:30:00 UTC,2445314.020833,29.6650,-93.4789,0086,-7.98,0.56,8.0000,274.0000
1982-12-10 13:00:00 UTC,2445314.041667,29.6650,-93.4789,0086,-8.00,0.28,8.0000,272.0000
1982-12-10 13:30:00 UTC,2445314.062500,29.6650,-93.4789,0086,-8.99,-0.47,9.0000,267.0000
1982-12-10 14:00:00 UTC,2445314.083333,29.6650,-93.4789,0086,-9.96,-0.87,10.0000,265.0000
1982-12-10 14:30:00 UTC,2445314.104167,29.6650,-93.4789,0086,-9.98,-0.70,10.0000,266.0000
1982-12-10 15:00:00 UTC,2445314.125000,29.6650,-93.4789,0086,-9.00,-0.00,9.0000,270.0000
1982-12-10 15:30:00 UTC,2445314.145833,29.6650,-93.4789,0086,-9.00,0.16,9.0000,271.0000
1982-12-10 16:00:00 UTC,2445314.166667,29.6650,-93.4789,0086,-8.95,-0.94,9.0000,264.0000
1982-12-10 16:30:00 UTC,2445314.187500,29.6650,-93.4789,0086,-8.34,-3.37,9.0000,248.0000
1982-12-10 17:00:00 UTC,2445314.208333,29.6650,-93.4789,0086,-7.46,-5.03,9.0000,236.0000
1982-12-10 17:30:00 UTC,2445314.229167,29.6650,-93.4789,0086,-7.09,-5.54,9.0000,232.0000
1982-12-10 18:00:00 UTC,2445314.250000,29.6650,-93.4789,0086,-7.09,-5.54,9.0000,232.0000
1982-12-10 18:30:00 UTC,2445314.270833,29.6650,-93.4789,0086,-6.78,-4.24,8.0000,238.0000
1982-12-10 19:00:00 UTC,2445314.291667,29.6650,-93.4789,0086,-6.49,-2.62,7.0000,248.0000
1982-12-10 19:30:00 UTC,2445314.312500,29.6650,-93.4789,0086,-7.83,-1.66,8.0000,258.0000
1982-12-10 20:00:00 UTC,2445314.333333,29.6650,-93.4789,0086,-8.89,-1.41,9.0000,261.0000
1982-12-10 20:30:00 UTC,2445314.354167,29.6650,-93.4789,0086,-9.88,-1.56,10.0000,261.0000
1982-12-10 21:00:00 UTC,2445314.375000,29.6650,-93.4789,0086,-8.91,-1.25,9.0000,262.0000
1982-12-10 21:30:00 UTC,2445314.395833,29.6650,-93.4789,0086,-8.95,-0.94,9.0000,264.0000
1982-12-10 22:00:00 UTC,2445314.416667,29.6650,-93.4789,0086,-8.99,-0.47,9.0000,267.0000
1982-12-10 22:30:00 UTC,2445314.437500,29.6650,-93.4789,0086,-9.99,-0.52,10.0000,267.0000
1982-12-10 23:00:00 UTC,2445314.458333,29.6650,-93.4789,0086,-9.99,-0.35,10.0000,268.0000
1982-12-10 23:30:00 UTC,2445314.479167,29.6650,-93.4789,0086,-9.99,0.35,10.0000,272.0000
1982-12-11 00:00:00 UTC,2445314.500000,29.6650,-93.4789,0086,-9.99,0.35,10.0000,272.0000
1982-12-11 00:30:00 UTC,2445314.520833,29.6650,-93.4789,0086,-9.96,-0.87,10.0000,265.0000
1982-12-11 01:00:00 UTC,2445314.541667,29.6650,-93.4789,0086,-9.85,-1.74,10.0000,260.0000
1982-12-11 01:30:00 UTC,2445314.562500,29.6650,-93.4789,0086,-9.85,-1.74,10.0000,260.0000
1982-12-11 02:00:00 UTC,2445314.583333,29.6650,-93.4789,0086,-9.85,-1.74,10.0000,260.0000
1982-12-11 02:30:00 UTC,2445314.604167,29.6650,-93.4789,0086,-9.93,-1.22,10.0000,263.0000
1982-12-11 03:00:00 UTC,2445314.625000,29.6650,-93.4789,0086,-9.98,-0.70,10.0000,266.0000
1982-12-11 03:30:00 UTC,2445314.645833,29.6650,-93.4789,0086,-10.98,-0.58,11.0000,267.0000
1982-12-11 04:00:00 UTC,2445314.666667,29.6650,-93.4789,0086,-11.99,0.42,12.0000,272.0000
1982-12-11 04:30:00 UTC,2445314.687500,29.6650,-93.4789,0086,-11.98,0.63,12.0000,273.0000
1982-12-11 05:00:00 UTC,2445314.708333,29.6650,-93.4789,0086,-11.98,-0.63,12.0000,267.0000
1982-12-11 05:30:00 UTC,2445314.729167,29.6650,-93.4789,0086,-10.99,-0.38,11.0000,268.0000
1982-12-11 06:00:00 UTC,2445314.750000,29.6650,-93.4789,0086,-8.99,-0.47,9.0000,267.0000
1982-12-11 06:30:00 UTC,2445314.770833,29.6650,-93.4789,0086,-7.65,-2.34,8.0000,253.0000
1982-12-11 07:00:00 UTC,2445314.791667,29.6650,-93.4789,0086,-7.25,-3.38,8.0000,245.0000
1982-12-11 07:30:00 UTC,2445314.812500,29.6650,-93.4789,0086,-8.46,-3.08,9.0000,250.0000
1982-12-11 08:00:00 UTC,2445314.833333,29.6650,-93.4789,0086,-9.61,-2.76,10.0000,254.0000
1982-12-11 08:30:00 UTC,2445314.854167,29.6650,-93.4789,0086,-9.78,-2.08,10.0000,258.0000
1982-12-11 09:00:00 UTC,2445314.875000,29.6650,-93.4789,0086,-9.90,-1.39,10.0000,262.0000
1982-12-11 09:30:00 UTC,2445314.895833,29.6650,-93.4789,0086,-8.99,-0.31,9.0000,268.0000
1982-12-11 10:00:00 UTC,2445314.916667,29.6650,-93.4789,0086,-7.99,0.42,8.0000,273.0000
1982-12-11 10:30:00 UTC,2445314.937500,29.6650,-93.4789,0086,-6.97,0.61,7.0000,275.0000
1982-12-11 11:00:00 UTC,2445314.958333,29.6650,-93.4789,0086,-6.98,0.49,7.0000,274.0000
1982-12-11 11:30:00 UTC,2445314.979167,29.6650,-93.4789,0086,-7.97,0.70,8.0000,275.0000
1982-12-11 12:00:00 UTC,2445315.000000,29.6650,-93.4789,0086,-7.94,0.97,8.0000,277.0000
1982-12-11 12:30:00 UTC,2445315.020833,29.6650,-93.4789,0086,-8.98,0.63,9.0000,274.0000
1982-12-11 13:00:00 UTC,2445315.041667,29.6650,-93.4789,0086,-9.00,-0.16,9.0000,269.0000
1982-12-11 13:30:00 UTC,2445315.062500,29.6650,-93.4789,0086,-8.00,0.14,8.0000,271.0000
1982-12-11 14:00:00 UTC,2445315.083333,29.6650,-93.4789,0086,-8.95,0.94,9.0000,276.0000
1982-12-11 14:30:00 UTC,2445315.104167,29.6650,-93.4789,0086,-8.97,0.78,9.0000,275.0000
1982-12-11 15:00:00 UTC,2445315.125000,29.6650,-93.4789,0086,-8.00,0.28,8.0000,272.0000
1982-12-11 15:30:00 UTC,2445315.145833,29.6650,-93.4789,0086,-8.00,0.14,8.0000,271.0000
1982-12-11 16:00:00 UTC,2445315.166667,29.6650,-93.4789,0086,-9.00,-0.00,9.0000,270.0000
1982-12-11 16:30:00 UTC,2445315.187500,29.6650,-93.4789,0086,-8.99,-0.47,9.0000,267.0000
1982-12-11 17:00:00 UTC,2445315.208333,29.6650,-93.4789,0086,-7.98,-0.56,8.0000,266.0000
1982-12-11 17:30:00 UTC,2445315.229167,29.6650,-93.4789,0086,-8.00,-0.00,8.0000,270.0000
1982-12-11 18:00:00 UTC,2445315.250000,29.6650,-93.4789,0086,-7.99,0.42,8.0000,273.0000
1982-12-11 18:30:00 UTC,2445315.270833,29.6650,-93.4789,0086,-8.00,-0.14,8.0000,269.0000
1982-12-11 19:00:00 UTC,2445315.291667,29.6650,-93.4789,0086,-7.99,-0.42,8.0000,267.0000
1982-12-11 19:30:00 UTC,2445315.312500,29.6650,-93.4789,0086,-6.00,0.21,6.0000,272.0000
1982-12-11 20:00:00 UTC,2445315.333333,29.6650,-93.4789,0086,-5.98,0.52,6.0000,275.0000
1982-12-11 20:30:00 UTC,2445315.354167,29.6650,-93.4789,0086,-7.00,-0.00,7.0000,270.0000
1982-12-11 21:00:00 UTC,2445315.375000,29.6650,-93.4789,0086,-7.99,-0.42,8.0000,267.0000
1982-12-11 21:30:00 UTC,2445315.395833,29.6650,-93.4789,0086,-6.00,0.21,6.0000,272.0000
1982-12-11 22:00:00 UTC,2445315.416667,29.6650,-93.4789,0086,-5.87,1.25,6.0000,282.0000
1982-12-11 22:30:00 UTC,2445315.437500,29.6650,-93.4789,0086,-5.56,2.25,6.0000,292.0000
1982-12-11 23:00:00 UTC,2445315.458333,29.6650,-93.4789,0086,-4.33,2.50,5.0000,300.0000
1982-12-11 23:30:00 UTC,2445315.479167,29.6650,-93.4789,0086,-4.85,3.53,6.0000,306.0000
1982-12-12 00:00:00 UTC,2445315.500000,29.6650,-93.4789,0086,-5.12,4.77,7.0000,313.0000
1982-12-12 00:30:00 UTC,2445315.520833,29.6650,-93.4789,0086,-5.03,6.22,8.0000,321.0000
1982-12-12 01:00:00 UTC,2445315.541667,29.6650,-93.4789,0086,-4.24,6.78,8.0000,328.0000
1982-12-12 01:30:00 UTC,2445315.562500,29.6650,-93.4789,0086,-3.88,7.00,8.0000,331.0000
1982-12-12 02:00:00 UTC,2445315.583333,29.6650,-93.4789,0086,-4.21,5.59,7.0000,323.0000
1982-12-12 02:30:00 UTC,2445315.604167,29.6650,-93.4789,0086,-4.31,5.52,7.0000,322.0000
1982-12-12 03:00:00 UTC,2445315.625000,29.6650,-93.4789,0086,-3.53,4.85,6.0000,324.0000
1982-12-12 03:30:00 UTC,2445315.645833,29.6650,-93.4789,0086,-4.60,3.86,6.0000,310.0000
1982-12-12 04:00:00 UTC,2445315.666667,29.6650,-93.4789,0086,-6.29,3.07,7.0000,296.0000
1982-12-12 04:30:00 UTC,2445315.687500,29.6650,-93.4789,0086,-7.31,3.25,8.0000,294.0000
1982-12-12 05:00:00 UTC,2445315.708333,29.6650,-93.4789,0086,-5.52,2.34,6.0000,293.0000
1982-12-12 05:30:00 UTC,2445315.729167,29.6650,-93.4789,0086,-2.70,1.32,3.0000,296.0000
1982-12-12 06:00:00 UTC,2445315.750000,29.6650,-93.4789,0086,-1.77,0.94,2.0000,298.0000
1982-12-12 06:30:00 UTC,2445315.770833,29.6650,-93.4789,0086,-2.67,1.36,3.0000,297.0000
1982-12-12 07:00:00 UTC,2445315.791667,29.6650,-93.4789,0086,-3.50,1.94,4.0000,299.0000
1982-12-12 07:30:00 UTC,2445315.812500,29.6650,-93.4789,0086,-4.57,2.03,5.0000,294.0000
1982-12-12 08:00:00 UTC,2445315.833333,29.6650,-93.4789,0086,-4.76,1.55,5.0000,288.0000
1982-12-12 08:30:00 UTC,2445315.854167,29.6650,-93.4789,0086,-4.60,1.95,5.0000,293.0000
1982-12-12 09:00:00 UTC,2445315.875000,29.6650,-93.4789,0086,-5.35,2.72,6.0000,297.0000
1982-12-12 09:30:00 UTC,2445315.895833,29.6650,-93.4789,0086,-5.35,2.72,6.0000,297.0000
1982-12-12 10:00:00 UTC,2445315.916667,29.6650,-93.4789,0086,-4.57,2.03,5.0000,294.0000
1982-12-12 10:30:00 UTC,2445315.937500,29.6650,-93.4789,0086,-2.67,1.36,3.0000,297.0000
1982-12-12 11:00:00 UTC,2445315.958333,29.6650,-93.4789,0086,-1.60,1.20,2.0000,307.0000
1982-12-12 11:30:00 UTC,2445315.979167,29.6650,-93.4789,0086,-0.71,0.71,1.0000,315.0000
1982-12-12 12:00:00 UTC,2445316.000000,29.6650,-93.4789,0086,0.00,0.00,0.0000,87.0000
1982-12-12 12:30:00 UTC,2445316.020833,29.6650,-93.4789,0086,1.00,-0.07,1.0000,94.0000
1982-12-12 13:00:00 UTC,2445316.041667,29.6650,-93.4789,0086,1.83,0.81,2.0000,66.0000
1982-12-12 13:30:00 UTC,2445316.062500,29.6650,-93.4789,0086,2.57,1.55,3.0000,59.0000
1982-12-12 14:00:00 UTC,2445316.083333,29.6650,-93.4789,0086,3.32,2.24,4.0000,56.0000
1982-12-12 14:30:00 UTC,2445316.104167,29.6650,-93.4789,0086,2.73,2.93,4.0000,43.0000
1982-12-12 15:00:00 UTC,2445316.125000,29.6650,-93.4789,0086,2.58,4.29,5.0000,31.0000
1982-12-12 15:30:00 UTC,2445316.145833,29.6650,-93.4789,0086,2.44,5.48,6.0000,24.0000
1982-12-12 16:00:00 UTC,2445316.166667,29.6650,-93.4789,0086,2.34,5.52,6.0000,23.0000
1982-12-12 16:30:00 UTC,2445316.187500,29.6650,-93.4789,0086,2.05,5.64,6.0000,20.0000
1982-12-12 17:00:00 UTC,2445316.208333,29.6650,-93.4789,0086,0.52,4.97,5.0000,6.0000
1982-12-12 17:30:00 UTC,2445316.229167,29.6650,-93.4789,0086,-1.27,2.72,3.0000,335.0000
1982-12-12 18:00:00 UTC,2445316.250000,29.6650,-93.4789,0086,-3.35,2.18,4.0000,303.0000
1982-12-12 18:30:00 UTC,2445316.270833,29.6650,-93.4789,0086,-4.46,2.27,5.0000,297.0000
1982-12-12 19:00:00 UTC,2445316.291667,29.6650,-93.4789,0086,-4.67,1.79,5.0000,291.0000
1982-12-12 19:30:00 UTC,2445316.312500,29.6650,-93.4789,0086,-4.92,0.87,5.0000,280.0000
1982-12-12 20:00:00 UTC,2445316.333333,29.6650,-93.4789,0086,-3.99,0.28,4.0000,274.0000
1982-12-12 20:30:00 UTC,2445316.354167,29.6650,-93.4789,0086,-3.00,0.10,3.0000,272.0000
1982-12-12 21:00:00 UTC,2445316.375000,29.6650,-93.4789,0086,-1.90,-0.62,2.0000,252.0000
1982-12-12 21:30:00 UTC,2445316.395833,29.6650,-93.4789,0086,-1.71,-1.03,2.0000,239.0000
1982-12-12 22:00:00 UTC,2445316.416667,29.6650,-93.4789,0086,-1.70,-1.06,2.0000,238.0000
1982-12-12 22:30:00 UTC,2445316.437500,29.6650,-93.4789,0086,-0.85,-0.53,1.0000,238.0000
1982-12-12 23:00:00 UTC,2445316.458333,29.6650,-93.4789,0086,-0.00,-0.00,0.0000,238.0000
1982-12-12 23:30:00 UTC,2445316.479167,29.6650,-93.4789,0086,-0.89,-0.45,1.0000,243.0000
1982-12-13 00:00:00 UTC,2445316.500000,29.6650,-93.4789,0086,-1.00,-0.03,1.0000,268.0000
1982-12-13 00:30:00 UTC,2445316.520833,29.6650,-93.4789,0086,-1.00,0.09,1.0000,275.0000
1982-12-13 01:00:00 UTC,2445316.541667,29.6650,-93.4789,0086,-2.95,0.52,3.0000,280.0000
1982-12-13 01:30:00 UTC,2445316.562500,29.6650,-93.4789,0086,-2.80,1.08,3.0000,291.0000
1982-12-13 02:00:00 UTC,2445316.583333,29.6650,-93.4789,0086,-0.82,0.57,1.0000,305.0000
1982-12-13 02:30:00 UTC,2445316.604167,29.6650,-93.4789,0086,-0.66,0.75,1.0000,319.0000
1982-12-13 03:00:00 UTC,2445316.625000,29.6650,-93.4789,0086,-0.89,0.45,1.0000,297.0000
1982-12-13 03:30:00 UTC,2445316.645833,29.6650,-93.4789,0086,1.20,1.60,2.0000,37.0000
1982-12-13 04:00:00 UTC,2445316.666667,29.6650,-93.4789,0086,5.94,3.71,7.0000,58.0000
1982-12-13 04:30:00 UTC,2445316.687500,29.6650,-93.4789,0086,7.63,4.77,9.0000,58.0000
1982-12-13 05:00:00 UTC,2445316.708333,29.6650,-93.4789,0086,5.20,3.00,6.0000,60.0000
1982-12-13 05:30:00 UTC,2445316.729167,29.6650,-93.4789,0086,3.94,0.69,4.0000,80.0000
1982-12-13 06:00:00 UTC,2445316.750000,29.6650,-93.4789,0086,6.00,-0.10,6.0000,91.0000